THOR ABLESTAR DEB, 3842

Orbit data source: Space-Track

THOR ABLESTAR DEB, 3842 is space debris in LEO originally from a launch on Thu, 29 Jun 1961 UTC launched from the Air Force Eastern Test Range (AFETR). Debris objects in space refer to the collection of defunct objects orbiting the Earth. Examples of debris include non-operational satellites, rocket bodies, and fragments generated from explosions, collisions, or faulty payload assembly.

Loading next visibility...
Identifier
3842, 1961-015JF
Orbit
LEO
Country
Flag of USUS
Related business
Manufacturer
Unknown
Mission
Spacecraft
Bus & Motor
Unknown
Mass
Unknown
Launch date (UTC)
1961-06-29 (65 years ago)
Launch vehicle
Unknown
Launch site
Air Force Eastern Test Range (AFETR)
Object type
Payload
Rocket body
Debris
Shape & HBR
Unknown shape, 0.1 m
Radar Cross Section
Medium (>0.1 m² and <1 m²)

Expand to show TLE details & history
Last TLE update: 15 hours ago

TLE from 15 hours ago
0 THOR ABLESTAR DEB
1 03842U 61015JF  26236.37352552  .00000214  00000-0  29887-3 0  9995
2 03842  66.7357 221.2115 0122261  63.6242 297.7318 13.72241853244535
Epoch: 2026-08-24T08:57Z
TLE epoch observation values (Epoch: 2026-08-24T08:57:52.604Z)
Latitude
-0.00001°
Longitude
114.08616°
Altitude
952.524 km
Speed
7.396 km/s
True Right ascension
14h 44m 50s
True Declination
0° 00' 00"
Sunlit
Object was in daylight at epoch
Visualization orbit readout
Latitude
Unknown
Longitude
Unknown
Altitude
Unknown
Speed
Unknown
Apparent Right ascension
Unknown
Apparent Declination
Unknown
Sunlit
N/A
Visualization observer readout
Local Sidereal Time
15:12:54
Azimuth
Unknown
Elevation
Unknown
Doppler factor
Unknown
Orbital elements
Apogee altitude
1,080.031 km
Perigee altitude
899.865 km
Semi-major axis
7,368.085 km
Eccentricity
0.01223
Inclination
66.7357°
RAAN
221.2115°
Arg. of periapsis
63.6242°
True anomaly
296.48294°
Mean anomaly
297.7318°
Eccentric anomaly
297.10825°
Mean motion
3.43171 °/min
Orbital period
104.9 mins
BSTAR
0.00029887
Loading maneuver chart data...
Computing Atmospheric mass density...
Loading historical data...
Loading historical data...
Loading historical data...
Loading historical data...
Loading historical data...
Loading historical data...
Loading historical data...

Documentation

Showing up to 5 results
|